Station 45151 - Lake Simcoe Image indicating link to RSS feed of recent meteorological observations for station 45151

Data from this station are not quality controlled by NDBC


Conditions at 45151 as of
(10:00 pm EDT on 05/26/2024)
0200 GMT on 05/27/2024:
     

Click on the graph icon in the table below to see a time series plot of the last five days of that observation.

5-day plot - Wind Direction Wind Direction (WDIR): E ( 100 deg true )
5-day plot - Wind Speed Wind Speed (WSPD):5.0 m/s
5-day plot - Wave Height Wave Height (WVHT): 0.3 m
5-day plot - Dominant Wave Period Dominant Wave Period (DPD): 2 sec
5-day plot - Atmospheric Pressure Atmospheric Pressure (PRES):1009.0 mb
5-day plot - Pressure Tendency Pressure Tendency (PTDY): -1.7 mb ( Falling )
5-day plot - Air Temperature Air Temperature (ATMP): 18.4 °C
5-day plot - Water Temperature Water Temperature (WTMP): 17.1 °C
5-day plot -  Wind Speed, Wind Gust and Atmospheric Pressure Combined plot of Wind Speed, Gust, and Air Pressure

Data from this station are not quality controlled by NDBC

Previous observations
TIME
(EDT)
5-day plot - Wind Direction
WDIR
 
5-day plot - Wind Speed
WSPD
m/s
5-day plot - Wind Gust
GST
m/s
5-day plot - Wave Height
WVHT
m
5-day plot - Dominant Wave Period
DPD
sec
5-day plot - Average Wave Period
APD
sec
5-day plot - Mean Wave Direction
MWD
 
5-day plot - Atmospheric Pressure
PRES
mb
5-day plot - Pressure Tendency
PTDY
mb
5-day plot - Air Temperature
ATMP
°C
5-day plot - Water Temperature
WTMP
°C
5-day plot - Dew Point
DEWP
°C
5-day plot - Salinity
SAL
psu
5-day plot - Visibility
VIS
km
5-day plot - Tide (above MLLW)
TIDE
m
2024-05-26 09:00 pmESE 5.0- 0.2 2--1009.1 -2.0 19.0 17.4----
2024-05-26 08:00 pmSSE 4.0- 0.2 2--1010.3 -1.4 19.1 17.7----
2024-05-26 07:00 pmSSE 5.0-- 2--1010.8 -1.5 19.6 18.0----
2024-05-26 06:00 pmSSE 2.0- 0.0 2--1011.2 -2.1 18.7 18.5----
2024-05-26 05:00 pmNNW 1.0- 0.0 2--1011.7 -2.1 19.0 18.4----
2024-05-26 04:00 pm W 2.0- 0.0 2--1012.3 -1.9 18.5 17.8----
2024-05-26 03:00 pm W 3.0- 0.1 2--1013.4 -1.3 17.6 17.5----
2024-05-26 02:00 pmWSW 3.0- 0.1 2--1013.9 -1.4 16.7 17.5----
2024-05-26 01:00 pm SW 3.0- 0.0 2--1014.3 -0.9 16.0 17.4----
2024-05-26 12:00 pm S 2.0- 0.0 2--1014.7 -0.4 15.7 17.3----
2024-05-26 11:00 am W 1.0- 0.1 2--1015.3 +0.4 15.5 16.4----
2024-05-26 10:00 amNNW 2.0- 0.1 2--1015.2 +0.9 14.9 16.1----
2024-05-26 09:00 am N 4.0- 0.2 2--1015.1 +0.9 14.1 16.0----
2024-05-26 08:00 am N 4.0- 0.1 2--1014.9 +1.3 13.3 16.0----
2024-05-26 07:00 am N 4.0- 0.1 2--1014.3 +1.1 13.4 16.0----
2024-05-26 06:00 amWNW 2.0- 0.1 2--1014.2 +1.6 13.3 16.1----
2024-05-26 05:00 am NW 2.0- 0.1 2--1013.7 +1.2 12.9 16.1----
2024-05-26 04:00 amWNW 4.0- 0.1 2--1013.3 +0.9 13.1 16.1----
2024-05-26 03:00 am NW 4.0- 0.1 2--1012.6 +0.5 13.9 16.1----
2024-05-26 02:00 am NW 5.0- 0.1 2--1012.4 +0.5 14.8 16.1----
2024-05-26 01:00 am W 5.0- 0.1 2--1012.3 +0.9 15.6 16.2----
2024-05-26 12:00 amWSW 3.0- 0.0 2--1012.0 +1.2 16.5 16.2----
2024-05-25 11:00 pmWSW 3.0- 0.1 2--1011.8 +1.6 16.5 16.2----
2024-05-25 10:00 pmSSW 2.0- 0.1 2--1011.3 +1.4 16.6 16.2----